Wetbulb
37.72 36.79 36.41 35.10 34.25 32.34 31.40 31.43 31.45 31.83 32.50 33.06 32.94 32.29 31.61 30.90 30.41 30.42 30.16 29.59 29.76 29.77
38.39 36.28 36.01 34.71 31.79 31.16 31.06 31.66 30.82 31.32 31.62 31.85 31.40 30.90 30.43 29.66 29.05 29.58 29.69 29.24 28.99 28.64
37.55 37.13 34.69 33.71 31.38 30.90 30.68 30.67 30.04 30.10 30.58 30.46 30.09 29.72 29.33 28.58 28.64 28.75 28.24 28.13 27.58 27.31
35.55 34.97 34.11 32.96 31.86 31.03 30.23 30.05 30.05 29.95 29.80 29.55 28.78 28.61 27.90 27.66 27.91 27.33 26.80 26.79 26.87 26.27
34.38 34.02 33.04 31.83 31.16 30.94 30.20 29.93 29.57 29.41 29.01 28.81 28.15 27.82 27.55 27.47 27.09 26.52 25.62 25.02 25.15 25.15
32.74 32.13 31.37 30.84 30.97 30.80 29.69 29.46 28.71 28.60 28.26 27.89 26.69 25.26 25.22 26.65 25.93 24.35 20.66 20.33 18.95 19.62
31.48 30.90 30.32 30.31 30.34 30.05 29.30 28.14 25.09 24.82 25.13 25.12 25.16 25.13 24.64 23.10 19.34 17.07 14.20 14.87 15.73 14.10
30.90 30.14 29.76 29.73 30.23 30.00 29.89 28.12 25.21 24.12 23.89 24.65 24.84 25.43 23.93 22.45 18.09 17.35 16.67 16.60 19.27 19.50
30.19 29.79 29.64 29.54 29.46 29.51 27.58 26.71 26.54 26.20 26.17 25.11 26.12 27.68 26.63 23.04 22.05 23.29 22.63 22.93 24.76 26.33
30.07 29.48 29.13 29.74 29.00 28.46 27.56 27.84 27.57 26.96 26.55 26.41 26.25 27.89 27.37 26.56 24.35 24.17 24.27 24.38 24.41 25.11
29.94 28.71 28.78 29.09 28.83 28.22 27.96 27.21 27.58 27.48 27.27 26.42 26.59 28.88 28.46 27.19 24.42 23.33 22.82 22.87 22.83 23.43
30.15 28.96 29.16 29.02 28.51 28.67 28.19 26.92 27.43 27.81 27.36 26.63 27.32 29.71 28.92 25.90 22.91 22.03 21.26 22.46 22.76 22.93
31.29 30.75 29.98 29.77 28.75 28.57 27.72 27.09 27.52 27.62 27.71 29.07 28.56 30.46 29.39 25.73 23.21 20.98 21.08 22.00 23.79 24.66
32.33 31.41 30.88 29.28 28.61 27.98 27.39 26.94 27.27 27.02 27.33 28.89 30.07 31.23 31.80 27.81 24.46 22.14 21.25 21.43 21.20 22.87
MSLP
1014.02 1015.29 1016.11 1016.55 1017.10 1017.54 1018.15 1018.64 1019.29 1019.87 1020.18 1020.57 1020.76 1021.45 1022.07 1022.84 1023.41 1023.64 1023.82 1024.12 1024.56 1024.91
1013.76 1014.83 1016.13 1016.83 1017.23 1017.77 1018.32 1018.95 1019.56 1020.02 1020.56 1021.05 1021.25 1021.84 1022.43 1022.97 1023.40 1023.84 1024.32 1024.82 1025.23 1025.57
1013.12 1014.02 1015.22 1016.83 1017.30 1017.61 1018.85 1018.97 1019.91 1020.30 1020.74 1021.53 1021.73 1022.36 1022.61 1023.13 1023.75 1024.24 1024.96 1025.41 1025.75 1026.10
1013.21 1014.08 1014.98 1016.10 1016.77 1017.84 1019.03 1019.40 1019.92 1020.41 1020.83 1022.00 1022.05 1022.38 1022.91 1023.56 1024.19 1024.80 1025.37 1025.81 1026.10 1026.58
1013.19 1014.26 1015.58 1015.92 1016.54 1017.69 1019.25 1019.53 1020.05 1020.64 1021.02 1021.97 1022.41 1022.68 1023.15 1024.09 1024.75 1025.27 1025.79 1026.10 1026.47 1027.04
1013.93 1014.79 1015.18 1016.03 1016.76 1018.01 1018.85 1019.71 1020.55 1020.73 1021.54 1022.03 1022.67 1023.06 1023.33 1024.42 1025.17 1025.60 1026.03 1026.55 1026.89 1027.21
1013.25 1014.28 1015.06 1015.92 1016.66 1018.05 1018.91 1019.81 1020.27 1020.49 1021.89 1022.27 1022.84 1023.15 1023.59 1024.67 1025.44 1026.17 1026.53 1026.95 1027.27 1027.54
1013.03 1014.07 1014.73 1016.11 1016.86 1017.83 1019.08 1019.78 1020.01 1020.92 1022.21 1022.13 1023.05 1023.39 1023.90 1025.03 1025.75 1026.44 1026.86 1027.23 1027.61 1028.05
1012.94 1013.81 1014.89 1016.03 1016.87 1017.72 1018.98 1020.03 1020.82 1021.39 1021.75 1022.23 1023.03 1023.23 1024.04 1024.89 1025.65 1026.37 1026.72 1027.08 1027.42 1027.46
1012.46 1013.60 1015.09 1015.34 1016.62 1017.90 1019.47 1020.73 1020.86 1021.28 1021.69 1022.57 1023.02 1023.44 1024.26 1025.09 1025.59 1026.30 1026.73 1026.96 1027.37 1027.81
1011.92 1013.19 1014.76 1015.38 1016.65 1018.24 1019.06 1019.56 1020.29 1021.68 1022.12 1022.91 1023.32 1023.62 1024.41 1025.25 1025.84 1026.54 1026.86 1027.11 1027.52 1028.05
1011.52 1012.64 1014.28 1015.60 1016.55 1017.71 1018.65 1019.54 1020.49 1021.05 1022.30 1022.85 1023.23 1023.73 1024.46 1025.23 1026.01 1026.68 1027.06 1027.48 1027.77 1028.23
1010.98 1012.48 1013.92 1014.89 1016.36 1017.70 1018.58 1019.21 1020.29 1021.41 1021.95 1022.51 1023.22 1023.45 1024.25 1025.10 1025.99 1026.73 1027.11 1027.70 1027.91 1028.26
1010.96 1012.61 1013.91 1015.46 1016.41 1017.57 1018.41 1019.25 1020.42 1021.45 1022.03 1022.28 1022.93 1023.24 1023.75 1024.87 1025.80 1026.38 1027.15 1027.81 1028.28 1028.64
Wind_Speed
11 7 7 8 7 5 4 6 6 6 6 6 7 7 7 6 5 6 6 8 6 4
11 11 8 8 6 5 6 5 6 7 7 6 7 7 7 5 6 7 6 6 6 4
13 13 11 9 8 8 6 6 7 7 8 7 7 7 7 6 6 8 4 4 6 4
10 11 12 11 10 9 7 8 8 8 9 7 8 7 8 7 7 8 7 5 7 6
11 11 11 10 11 11 9 7 8 8 9 8 7 7 9 8 6 8 7 6 7 6
11 11 10 11 11 10 10 9 7 8 8 8 7 7 7 7 7 6 6 5 6 5
13 12 12 12 12 12 10 11 8 8 7 7 7 8 9 8 8 7 6 6 6 6
12 11 13 12 12 12 10 9 9 10 7 8 7 7 10 10 9 10 9 6 7 7
13 13 13 13 12 12 9 9 10 10 9 9 6 17 19 15 11 10 10 9 5 7
15 14 13 13 12 12 11 9 7 8 10 8 8 20 20 18 8 8 7 8 8 8
15 15 13 14 14 13 11 12 10 9 8 8 8 20 19 16 8 7 6 6 6 6
17 17 16 15 14 12 11 10 10 10 10 10 11 20 19 13 8 8 7 6 5 6
16 16 16 15 14 11 10 11 9 10 11 14 12 21 20 14 7 8 7 6 5 7
15 14 13 12 11 11 11 11 10 10 9 10 10 12 21 18 8 7 6 5 4 3
Wind_Direction
144 156 159 158 152 139 137 139 139 128 118 117 114 108 100 98 103 98 90 86 75 80
149 148 159 147 127 129 121 128 125 123 117 120 110 116 120 113 100 92 86 84 82 80
161 153 146 149 142 129 127 116 127 120 119 120 117 119 114 104 99 102 90 96 94 77
157 150 145 150 135 132 129 135 130 132 124 132 126 118 108 104 111 107 108 100 102 91
138 140 149 140 135 132 140 122 130 129 123 129 124 118 120 118 119 124 122 117 111 117
148 146 137 137 132 130 129 124 128 123 126 127 123 117 100 117 119 109 107 122 119 119
149 150 144 141 135 137 138 139 133 122 129 127 124 123 118 112 107 106 104 107 110 107
142 141 135 138 138 135 144 143 130 120 134 115 130 137 127 131 125 125 116 105 107 114
136 137 139 141 137 132 125 133 140 139 135 131 145 149 146 140 138 135 132 129 134 116
142 141 147 135 130 124 134 135 123 120 124 130 138 148 146 145 131 132 131 123 119 117
146 141 145 142 142 149 146 136 128 132 129 148 160 155 151 143 125 122 115 116 117 117
155 147 151 154 148 145 142 136 145 142 151 163 159 160 155 137 129 127 119 120 115 130
151 153 159 146 146 143 143 143 145 155 162 162 162 165 157 143 138 136 128 127 131 135
147 150 140 137 137 145 146 142 152 158 160 154 160 173 165 162 153 143 134 131 124 137